TIME,DELAY(SENSOR),PRES,T(CTD),SAL,OXYGEN,RAWTEMP,T(OPTODE),TCPHASE,FLUOR,BETA(BETA700),BETA(BETA412),BETA(BETA440),CDOM,C(CSC),ED(ED411.90),ED(ED443.80),ED(ED489.40),ED(ED554.70),LU(LU412.20),LU(LU443.80),LU(LU489.40),LU(LU555.00),COMP,TILTX,TILTX(TILTY),CHECK
1352388411,5803,497.2099914550781000,17.5482006072998050,36.4724998474121100,229.4559020996093800,184.7754974365234400,17.5448608398437500,31.9804992675781250,49,100,60,66,50,1724,2147488192,2147768237,2147555995,2147794340,2147320009,2147477092,2147709824,2148250505,513,7,13,24713
1352388526,5803,486.3800048828125000,17.6294994354248050,36.4873008728027340,231.1398010253906200,182.0298004150390600,17.6284198760986330,31.8598194122314450,49,103,61,66,51,1727,2147484672,2147766025,2147556297,2147793133,2147317814,2147478582,2147707940,2148245467,1289,6,12,25514
1352388643,5804,475.4100036621094000,17.6781005859375000,36.4943008422851560,231.5671997070312500,180.3529968261718800,17.6794490814209000,31.8158607482910160,50,101,61,66,51,1725,2147487424,2147769216,2147558372,2147791798,2147313654,2147483373,2147705334,2148245138,1290,7,12,14316
1352388758,5803,464.4899902343750000,17.7350006103515620,36.5047988891601560,232.2619934082031200,178.3415985107422000,17.7406692504882800,31.7546005249023440,50,101,63,67,50,1726,2147486363,2147765184,2147554240,2147793234,2147318427,2147477851,2147711762,2148243858,1494,7,13,61875
1352388885,5804,452.5499877929687500,17.8404006958007800,36.5256996154785160,233.2012939453125000,175.1855010986328000,17.8367500305175780,31.6658592224121100,50,102,62,66,50,1729,2147486866,2147765641,2147556745,2147788598,2147316224,2147480109,2147706093,2148244928,1869,7,13,46005
1352389003,5804,441.4599914550781000,17.8859004974365230,36.5323982238769500,233.7151031494140600,173.7129974365234400,17.8815803527832030,31.6210594177246100,49,101,62,67,52,1729,2147484699,2147765494,2147554395,2147793627,2147317385,2147483757,2147708233,2148241078,2669,7,13,56736
1352389130,5805,429.8399963378906000,17.9370994567871100,36.5397987365722660,234.0726013183593800,172.0106048583984400,17.9334106445312500,31.5808296203613280,50,103,63,67,50,1728,2147486518,2147762093,2147555419,2147793179,2147320457,2147481179,2147711067,2148246006,48,7,12,32700
1352389247,5803,419.3500061035156000,17.9848003387451170,36.5461997985839840,234.3385009765625000,170.3871002197265600,17.9828395843505860,31.5461502075195300,49,103,63,67,51,1730,2147488576,2147763748,2147554340,2147791442,2147305179,2147480813,2147708964,2148241380,637,7,12,58836
1352389374,5803,408.2200012207031000,18.0135993957519530,36.5485000610351560,234.5113983154297000,169.3569946289062500,18.0142097473144530,31.5237998962402340,49,102,61,66,50,1730,2147486016,2147766701,2147553947,2147793938,2147308086,2147478601,2147704804,2148242349,1290,7,12,61840
1352389501,5806,397.1700134277344000,18.0743999481201170,36.5583992004394500,234.1728057861328000,167.5565948486328000,18.0690402984619140,31.5160293579101560,49,101,61,67,51,1730,2147489673,2147765522,2147554294,2147792932,2147314532,2147483264,2147710473,2148244114,1939,7,13,49067
1352389631,5800,386.0000000000000000,18.1380996704101560,36.5660018920898440,233.8144073486328000,165.3652038574218800,18.1357803344726560,31.5039005279541000,49,102,61,67,50,1731,2147485211,2147762733,2147557860,2147789997,2147317677,2147485092,2147710134,2148242002,2687,7,12,56753
1352389758,5804,375.2200012207031000,18.1770000457763670,36.5674018859863300,232.1773071289062500,164.0561065673828000,18.1756591796875000,31.5658092498779300,50,102,62,68,50,1733,2147486418,2147760758,2147554185,2147790774,2147316187,2147479945,2147710080,2148243236,3501,7,12,27369
1352389887,5803,364.4400024414062500,18.2219009399414060,36.5689010620117200,230.6307983398437500,162.3773040771484400,18.2267894744873050,31.6187095642089840,48,103,62,65,50,1734,2147492342,2147762166,2147554194,2147792274,2147312045,2147480923,2147708781,2148242660,294,7,12,35828
1352390026,5805,353.2200012207031000,18.2866001129150400,36.5724983215332000,227.6744995117187500,160.4266967773437500,18.2862205505371100,31.7388000488281250,49,102,61,67,52,1735,2147489453,2147767451,2147557046,2147790710,2147313618,2147477632,2147708068,2148240795,848,7,12,54105
1352390167,5804,342.1400146484375000,18.4078998565673830,36.5900001525878900,229.5202941894531200,156.6519927978515600,18.4012393951416000,31.5963592529296880,50,102,62,66,50,1737,2147486491,2147766098,2147556370,2147788763,2147315154,2147483858,2147710025,2148243392,680,7,12,35236
1352390306,5801,331.4400024414062500,18.4687995910644530,36.5941009521484400,228.9897003173828000,154.4895019531250000,18.4671401977539060,31.5935096740722660,49,101,61,68,50,1738,2147491702,2147765120,2147557110,2147790381,2147304402,2147482112,2147711067,2148239789,551,7,12,24851
1352390445,5804,320.9899902343750000,18.5711002349853500,36.5858001708984400,230.1535949707031200,151.1213073730468800,18.5698108673095700,31.4907093048095700,50,100,62,67,51,1738,2147487259,2147761846,2147556937,2147786349,2147305856,2147481874,2147709028,2148241252,653,7,12,46911
1352390582,5802,309.1099853515625000,18.6688995361328120,36.5749015808105500,231.9803924560547000,147.7239990234375000,18.6733798980712900,31.3562107086181640,50,99,61,67,51,1738,2147489974,2147766180,2147562624,2147789851,2147307602,2147484406,2147712704,2148242139,1225,7,12,58376
1352390697,5800,297.9200134277344000,18.8409004211425780,36.5834007263183600,230.0428924560547000,142.3582000732422000,18.8370208740234380,31.3791007995605470,49,100,62,66,50,1738,2147491785,2147762651,2147560054,2147788955,2147307757,2147486061,2147712758,2148237312,1520,7,12,41220
1352390814,5804,286.7000122070312500,18.9396991729736330,36.5713996887207000,232.7131958007812500,139.0393981933593800,18.9382705688476560,31.2049293518066400,49,100,60,66,50,1741,2147493302,2147767158,2147569984,2147787712,2147305764,2147479725,2147717330,2148239168,2318,7,12,33057
1352390929,5805,275.4800109863281000,19.0510997772216800,36.5769996643066400,233.4259948730468800,134.7711029052734400,19.0685195922851560,31.1140594482421880,49,101,62,67,50,1742,2147493504,2147763977,2147564781,2147788699,2147311972,2147485138,2147711762,2148238701,2516,7,13,31417
1352391044,5801,264.2300109863281000,19.1560001373291000,36.5722999572753900,239.3439941406250000,131.9335937500000000,19.1551303863525400,30.7963104248046880,49,100,62,68,50,1742,2147496694,2147770020,2147589037,2147787657,2147313289,2147490221,2147726125,2148238893,3084,7,12,29557
1352391161,5806,253.1199951171875000,19.2136993408203120,36.5665016174316400,245.0626983642578000,130.1219940185547000,19.2104396820068360,30.5098800659179700,49,98,62,67,51,1743,2147496292,2147778450,2147604982,2147786102,2147308525,2147490057,2147733476,2148236900,123,7,12,43351
1352391276,5802,242.4900054931640600,19.2618007659912100,36.5670013427734400,246.8601074218750000,128.4835968017578000,19.2604694366455080,30.4076194763183600,49,100,62,67,50,1744,2147493915,2147778788,2147607369,2147787693,2147306404,2147491702,2147738669,2148238345,664,8,12,47195
1352391403,5803,231.1799926757812500,19.3278007507324220,36.5666999816894500,247.1065063476562500,126.4234008789062500,19.3233890533447270,30.3697395324707030,50,101,62,66,50,1744,2147495149,2147769398,2147571556,2147786889,2147313755,2147483446,2147713874,2148237732,1166,7,12,59044
1352391533,5803,219.9499969482422000,19.3819999694824220,36.5660018920898440,247.2062988281250000,124.2592010498046900,19.3894901275634770,30.3368396759033200,49,101,62,67,50,1744,2147495881,2147767158,2147573952,2147785563,2147308205,2147490002,2147715364,2148236909,2322,7,12,23328
1352391660,5804,209.1499938964843800,19.4804992675781250,36.5791015625000000,245.9011993408203000,120.8752975463867200,19.4928703308105470,30.3514709472656250,49,104,62,67,50,1743,2147493376,2147778020,2147604096,2147789165,2147307328,2147492525,2147733906,2148237412,2770,8,12,39903
1352391789,5804,198.3500061035156200,19.6886005401611330,36.6035003662109400,242.8560943603515600,114.2912979125976600,19.6941204071044920,30.4037208557128900,52,103,61,67,50,1744,2147498057,2147820141,2147747556,2147783753,2147311524,2147516443,2147804909,2148243072,2810,7,12,47795
1352391844,5804,193.8200073242187500,19.8318996429443360,36.6138000488281250,241.6262054443359400,109.7757034301757800,19.8322200775146500,30.4009895324707030,52,106,61,68,51,1744,2147501522,2147828306,2147761883,2147787328,2147317851,2147525440,2147816722,2148241773,2671,7,12,34638
1352391899,5805,189.5299987792968800,19.9617004394531250,36.6226005554199200,243.3307037353515600,105.3197021484375000,19.9685497283935550,30.2656002044677730,54,108,62,67,50,1744,2147501531,2147792795,2147632411,2147786029,2147310884,2147499611,2147741659,2148236022,2085,7,12,4944
1352391954,5804,185.3200073242187500,20.1287994384765620,36.6409988403320300,244.8417968750000000,100.3755035400390600,20.1198997497558600,30.1332893371582030,53,106,61,67,50,1744,2147505673,2147860370,2147846875,2147784923,2147310491,2147536539,2147853412,2148245540,1938,7,13,52642
1352392009,5804,181.1399993896484400,20.3521995544433600,36.6803016662597660,241.4335937500000000,92.2727279663086000,20.3681106567382800,30.1831798553466800,50,104,61,67,51,1745,2147507840,2147844873,2147796516,2147785956,2147318144,2147532955,2147835885,2148243904,2094,7,12,26820
1352392084,5805,175.8899993896484400,20.5536994934082030,36.7155990600585940,231.8759002685547000,86.6271667480468800,20.5411796569824220,30.5564002990722660,49,102,61,68,50,1745,2147519314,2147911890,2147988525,2147784548,2147321746,2147570020,2147928210,2148247936,1702,7,12,42460
1352392139,5804,172.3500061035156200,20.7033004760742200,36.7275009155273440,228.9501037597656200,81.7765731811523400,20.6899700164794920,30.6343193054199220,50,102,61,67,51,1747,2147510080,2147858989,2147826898,2147785225,2147318930,2147543277,2147847808,2148243035,1656,7,13,11935
1352392206,5804,168.1000061035156200,20.7222995758056640,36.7252006530761700,227.3686981201172000,80.4897918701171900,20.7294597625732420,30.6943302154541000,50,102,63,66,51,1746,2147526573,2147937782,2148043008,2147783040,2147327515,2147586678,2147961325,2148249801,1799,7,13,64258
1352392273,5806,164.0200042724609400,20.8953990936279300,36.7398986816406250,225.8374023437500000,75.3382415771484400,20.8876094818115230,30.7024803161621100,50,102,61,67,51,1745,2147526976,2147942756,2148047753,2147782866,2147331154,2147592201,2147964260,2148250249,1873,7,12,21173
1352392340,5804,160.3000030517578000,20.9358997344970700,36.7436981201171900,225.1170043945312500,73.9452362060546900,20.9303894042968750,30.7196998596191400,50,103,60,67,51,1744,2147540470,2147993426,2148175561,2147785161,2147336813,2147619163,2148028891,2148252525,1524,7,12,8575
1352392419,5805,156.8200073242187500,21.0041999816894530,36.7462005615234400,224.5861968994140600,71.8335266113281200,20.9952602386474600,30.7184696197509770,50,103,62,67,50,1747,2147548489,2148025005,2148241453,2147781732,2147337042,2147640320,2148069732,2148252059,1059,7,12,13006
1352392582,5805,153.3999938964843800,21.0386009216308600,36.7438011169433600,225.2716979980468800,70.6257171630859400,21.0323696136474600,30.6688709259033200,50,103,60,67,51,1747,2147558765,2148049280,2148288000,2147780772,2147339931,2147651766,2148093101,2148256512,583,7,12,2874
1352392766,5803,148.6799926757812500,21.1340007781982420,36.7335014343261700,229.7033996582031200,67.5188064575195300,21.1278495788574220,30.4129295349121100,50,103,62,67,50,1746,2147571062,2148084736,2148364013,2147785444,2147349046,2147676900,2148131821,2148261266,2588,7,12,23008
1352392857,5806,144.5500030517578000,21.2905998229980470,36.7490005493164060,228.5733032226562500,62.6696891784668000,21.2769699096679700,30.4045906066894530,51,104,61,67,50,1745,2147599195,2148197979,2148620233,2147783506,2147362185,2147736109,2148263414,2148267894,2710,7,12,39062
1352392936,5805,140.6100006103515600,21.3600006103515620,36.7596015930175800,225.9913940429687500,59.5085983276367200,21.3742198944091800,30.4894599914550780,50,102,62,66,52,1745,2147641216,2148316086,2148900873,2147787995,2147376320,2147807753,2148410505,2148275465,3158,7,12,25252
1352393017,5802,136.6199951171875000,21.4967002868652340,36.7685012817382800,223.8495025634765600,55.9602088928222660,21.4834499359130860,30.5489292144775400,51,103,61,67,52,1744,2147664612,2148390729,2149057344,2147789440,2147385453,2147842432,2148484882,2148280210,2702,7,12,58018
1352393108,5802,132.6900024414062500,21.5778999328613280,36.7561988830566400,225.4022064208984400,53.3174209594726560,21.5648307800292970,30.4382591247558600,51,106,61,68,51,1745,2147613184,2148110034,2148315328,2147784557,2147367542,2147696768,2148121334,2148260333,2158,7,12,5684
1352393223,5804,129.3500061035156200,21.6737995147705080,36.7351989746093750,230.7167053222656200,51.1055793762207000,21.6329708099365230,30.1531200408935550,52,105,61,67,50,1743,2147736164,2148564653,2149406592,2147792521,2147419885,2147952310,2148674697,2148294857,996,8,12,27828
1352393410,5804,125.0699996948242200,22.0195007324218750,36.7769012451171900,229.2008056640625000,39.1832809448242200,22.0006408691406250,30.0727291107177730,51,105,61,68,51,1743,2147623625,2148094153,2148216484,2147784000,2147369481,2147684141,2148047296,2148251456,3532,7,13,7242
1352393549,5802,121.2600021362304700,22.2558994293212900,36.7825012207031250,228.4272003173828000,31.6996192932128900,22.2317695617675780,30.0140209197998050,52,108,60,68,52,1744,2147703634,2148307593,2148684388,2147788288,2147407250,2147816210,2148314614,2148265060,2766,7,12,22573
1352393688,5802,116.7399978637695300,22.4060993194580080,36.7854003906250000,228.7368927001953000,25.3917007446289060,22.4267997741699220,29.9186706542968750,52,107,61,69,51,1741,2148003867,2149133796,2150540635,2147806345,2147536640,2148272530,2149265051,2148330733,2562,6,12,7668
1352393791,5803,112.6399993896484400,22.6126995086669920,36.7358016967773440,227.7779998779297000,19.8017101287841800,22.5998096466064450,29.8934593200683600,55,112,62,68,50,1741,2147758701,2148339053,2148674742,2147790628,2147429851,2147827401,2148292160,2148269394,2037,7,13,8908
1352393894,5802,109.3600006103515600,22.7490005493164060,36.6643981933593750,230.4185943603515600,15.3270902633667000,22.7384204864501950,29.7109794616699220,56,112,62,69,50,1740,2148235291,2149514432,2151178660,2147820416,2147632859,2148474916,2149573860,2148358089,2499,7,12,4459
1352394045,5804,104.7300033569336000,22.8421993255615230,36.6213989257812500,235.2882995605468800,12.3080101013183600,22.8320007324218750,29.4455509185791000,55,115,63,69,50,1738,2148415716,2149779913,2151614144,2147834477,2147716525,2148623323,2149780681,2148375771,3513,8,12,23617
1352394160,5805,101.1299972534179700,22.8892993927001950,36.6105003356933600,236.5104064941406200,11.0981397628784180,22.8695201873779300,29.3743095397949220,55,117,62,68,50,1735,2147898560,2148481654,2148809389,2147796544,2147496054,2147908507,2148344393,2148274944,461,8,12,19297
1352394227,5805,99.1999969482421900,22.9057006835937500,36.6044998168945300,236.9414978027343800,10.1365003585815430,22.8993396759033200,29.3424892425537100,56,114,62,67,50,1735,2148023387,2148705874,2149205997,2147806948,2147552384,2148033106,2148550043,2148290825,560,8,12,56250
1352394306,5803,96.1999969482421900,22.9258003234863280,36.5873985290527340,238.4329071044922000,9.3571901321411130,22.9235191345214840,29.2649307250976560,56,111,63,68,50,1734,2148347830,2149304685,2150314870,2147834230,2147701942,2148365147,2149137353,2148334912,1007,7,12,63189
1352394361,5802,93.3700027465820300,22.9715995788574220,36.5745010375976560,239.7131958007812500,7.9044971466064450,22.9685897827148440,29.1888999938964840,57,114,62,69,50,1734,2148654445,2149834934,2151319405,2147860187,2147841764,2148667373,2149666724,2148377499,1066,7,12,40765
1352394416,5804,90.5400009155273400,23.2541999816894530,36.5021018981933600,240.1336975097656200,-1.6354229450225830,23.2648601531982420,29.0508003234863280,58,118,64,69,50,1733,2148677952,2149778642,2151100580,2147868864,2147855268,2148632219,2149532708,2148372836,561,8,12,14150
1352394471,5807,88.4100036621093800,23.3826999664306640,36.4556999206543000,241.8365020751953000,-3.5334351062774660,23.3238697052001950,28.9511699676513670,59,121,63,69,50,1731,2149330212,2150937865,2153264877,2147932352,2148136310,2149205403,2150478875,2148450148,27,8,12,30648
1352394526,5802,87.4100036621093800,23.3882999420166000,36.4528999328613300,242.1580047607422000,-5.0782799720764160,23.3719100952148440,28.9176197052001950,61,118,62,69,50,1730,2149849664,2151914898,2155183780,2147986496,2148409526,2149844342,2151641874,2148542665,306,8,12,62387
1352394641,5805,84.8899993896484400,23.6175003051757800,36.3698997497558600,243.5442962646484400,-12.4009504318237300,23.5998401641845700,28.7655391693115230,59,127,62,70,50,1727,2149342336,2150808100,2152908672,2147945536,2148204342,2149260379,2150530102,2148459529,493,6,12,13100
1352394708,5805,83.6100006103515600,23.6263999938964840,36.3572006225585940,244.0805053710937500,-13.0257501602172850,23.6193008422851560,28.7343101501464840,62,138,63,71,50,1723,2149039186,2150232027,2151759122,2147912155,2148073344,2148924077,2149916854,2148406628,39,8,12,517
1352394931,5801,81.0400009155273400,23.6343002319335940,36.3529014587402340,245.0110931396484400,-13.4302597045898440,23.6319007873535160,28.6886405944824220,63,134,63,72,50,1725,2149074934,2150163776,2151461558,2147910070,2148124918,2148892333,2149764571,2148405504,3171,8,12,29348
1352394986,5806,78.9000015258789000,23.6357002258300780,36.3512992858886700,245.3305969238281200,-13.5156202316284180,23.6345596313476560,28.6737804412841800,65,133,63,72,48,1725,2149461083,2150764644,2152476342,2147967890,2148342528,2149240905,2150306742,2148460507,3186,7,12,11600
1352395041,5802,76.6600036621093800,23.6385993957519530,36.3494987487793000,245.4893035888672000,-13.6157398223876950,23.6376800537109380,28.6654701232910160,66,134,64,71,49,1723,2151826505,2154846601,2160090112,2148303378,2149588105,2151539657,2154193362,2148804909,3009,7,12,50299
1352395096,5801,74.5199966430664000,23.6415996551513670,36.3462982177734400,245.5576019287109400,-13.7162504196167000,23.6408100128173830,28.6613197326660160,66,142,64,70,49,1720,2152259337,2155469312,2161184265,2148387785,2149861257,2151941787,2154888091,2148881700,2590,8,12,56404
1352395151,5802,72.4400024414062500,23.6450996398925780,36.3441009521484400,245.7967071533203000,-13.8104696273803710,23.6437492370605470,28.6497707366943360,66,137,64,72,50,1720,2152536411,2155693430,2161356388,2148424356,2150087067,2152198345,2155223506,2148921819,2118,8,12,58084
1352395230,5802,68.7799987792968800,23.6364994049072270,36.3376998901367200,245.9474029541015600,-13.4860200881958000,23.6336402893066400,28.6471595764160160,69,140,66,72,49,1717,2152847085,2155814436,2161051437,2148499913,2150302646,2152244461,2155057453,2148946706,2089,8,12,8479
1352395285,5803,65.4499969482421900,23.6284999847412100,36.3339996337890600,246.1042022705078000,-13.3253202438354500,23.6286392211914060,28.6424407958984380,70,139,65,74,50,1716,2155023789,2158942756,2166164626,2148945856,2151542034,2154051163,2157835026,2149270564,2057,8,12,44937
1352395340,5803,61.9199981689453100,23.6303005218505860,36.3339004516601560,246.1428985595703000,-13.3501996994018550,23.6294097900390620,28.6403408050537100,69,145,65,73,50,1714,2156411529,2160790189,2168837494,2149261229,2152342144,2155101120,2159347337,2149479698,2426,8,12,8480
1352395395,5807,58.2599983215332000,23.6313991546630860,36.3330001831054700,246.2272033691406200,-13.3948497772216800,23.6308002471923830,28.6362400054931640,70,143,65,72,50,1714,2158641115,2163690093,2172947337,2149806299,2153595876,2156705764,2161508571,2149810688,2693,7,12,63031
1352395450,5801,54.5600013732910160,23.6399002075195300,36.3308982849121100,246.3323974609375000,-13.7307100296020500,23.6412601470947270,28.6274394989013670,70,140,64,72,50,1713,2161017883,2166559670,2176906121,2150456896,2154971456,2158432484,2163822774,2150188626,2787,8,12,49009
1352395592,5806,46.8800010681152340,23.7155990600585940,36.3138999938964840,245.9891967773437500,-16.1092491149902340,23.7153892517089840,28.6130409240722660,71,142,64,72,50,1710,2155057380,2156226093,2157760640,2148809170,2151697042,2152497910,2153498203,2148999972,2352,8,12,11007
1352395646,5803,44.1199989318847660,23.8309001922607420,36.2930984497070300,245.4176940917968800,-19.7469291687011720,23.8288192749023440,28.5926399230957030,71,146,64,74,50,1706,2165489572,2170711926,2180185563,2152053732,2157448594,2160491401,2165205741,2150884781,2510,7,12,47015
1352395715,5802,42.9099998474121100,23.8435993194580080,36.2911987304687500,245.4324035644531200,-20.1690406799316400,23.8419895172119140,28.5869503021240230,70,149,66,75,50,1708,2174577947,2183375771,2200125677,2155391131,2162988928,2168337133,2177157165,2152824758,2249,8,12,523
1352395796,5802,40.7799987792968750,23.8458995819091800,36.2905998229980500,245.4893035888672000,-20.2604999542236330,23.8448390960693360,28.5833892822265620,69,145,66,72,50,1705,2178105874,2187224886,2204837878,2156749019,2165049307,2170618377,2180110592,2153567222,1760,7,12,3716
1352395865,5804,38.5600013732910160,23.8470993041992200,36.2905006408691400,245.3928070068359400,-20.3186302185058600,23.8466491699218750,28.5868396759033200,68,149,64,71,50,1704,2162286582,2164604452,2168750848,2150805668,2156620809,2158398912,2161318171,2150277778,1557,7,12,7337
1352395922,5804,36.7999992370605500,23.8456001281738280,36.2907981872558600,245.4790039062500000,-20.2722091674804700,23.8452091217041000,28.5835800170898440,69,154,65,72,49,1703,2167945636,2171488923,2178151131,2153240438,2159472539,2161652379,2165275190,2151333156,1637,9,13,52163
1352395975,5805,34.6199989318847660,23.8442001342773440,36.2907981872558600,245.4709014892578000,-20.2584400177001950,23.8447799682617200,28.5841102600097660,69,151,66,72,50,1705,2166078272,2168653586,2173448347,2152716946,2158537645,2160124864,2162720813,2151010980,1201,8,12,37178
1352396020,5803,32.3600006103515600,23.8456001281738280,36.2906990051269500,245.4591064453125000,-20.2878398895263670,23.8456897735595700,28.5844001770019530,68,148,64,74,50,1705,2169136073,2171876086,2177233874,2154048091,2160481526,2162168914,2165020818,2151627209,1107,7,11,8888
1352396053,5803,30.7399997711181640,23.8456001281738280,36.2902984619140600,245.6051940917968800,-20.3928794860839840,23.8489704132080080,28.5766105651855470,73,150,64,73,50,1703,2204870272,2218705746,2246451913,2170997668,2182843035,2191470125,2206260699,2160597366,1016,8,12,50878
1352396098,5805,28.4599990844726560,23.8448009490966800,36.2905006408691400,245.5227966308593800,-20.3646507263183600,23.8480892181396500,28.5805397033691400,69,147,66,73,50,1705,2182025590,2186936146,2197217069,2160156452,2168852900,2172049170,2177673718,2154675218,1117,8,12,24312
1352396131,5805,26.6399993896484380,23.8439998626709000,36.2907981872558600,245.6893005371093800,-20.4371395111084000,23.8503494262695300,28.5724697113037100,70,148,66,73,50,1702,2193061330,2200021037,2214810861,2165794377,2176128685,2180760402,2188885760,2157632109,927,9,10,39297
